Location: B�di�
(14.6834°N, 3.1047°W)
Time: 06:17:40
(UTC+00:00)

SWIFT - Pass Details

Date: 24 January 2020
Orbit: 545 x 560 km, 20.6° (Epoch: 17 February)

Event Time Altitude Azimuth Distance (km) Brightness Sun altitude
Rises 18:23:21 0° 279° (W) 2,688 7.1 -4.5°
Reaches altitude 10° 18:25:45 10° 288° (WNW) 1,798 5.9 -5.1°
Maximum altitude 18:29:38 37° 356° (N) 854 3.2 -6.0°
Drops below altitude 10° 18:33:32 10° 65° (ENE) 1,805 4.3 -6.9°
Enters shadow 18:33:53 - 67° (ENE) 1,932 4.4 -6.9°
